Location: Granada Hills
(34.2650°N, 118.5220°W)
Time: 13:08:58
(UTC-07:00)

deb Kosmos-1763 - Visible Passes

Search period start: 21 June 2018 00:00
Search period end: 01 July 2018 00:00
Orbit: 485 x 499 km, 74.0° (Epoch: 21 June)

Date Brightness Start Highest point End Pass type
(mag) Time Alt. Az. Time Alt. Az. Time Alt. Az.
21 Jun 7.3 00:55:29 10° NE 00:55:50 11° NE 00:55:50 11° NE visible
21 Jun 6.9 02:30:03 10° NW 02:30:19 12° NW 02:30:19 12° NW visible
22 Jun 6.9 02:07:09 10° NNW 02:07:38 13° NNW 02:07:38 13° NNW visible
23 Jun 7.0 01:44:20 10° NNW 01:45:00 15° NNW 01:45:00 15° NNW visible
24 Jun 7.0 01:21:34 10° NNW 01:22:22 16° NNW 01:22:22 16° NNW visible
25 Jun 7.0 00:58:52 10° N 00:59:47 17° N 00:59:47 17° N visible
26 Jun 7.0 00:36:13 10° N 00:37:13 17° N 00:37:13 17° N visible
27 Jun 6.9 00:13:38 10° N 00:14:41 16° NNE 00:14:41 16° NNE visible
27 Jun 6.9 23:51:08 10° NNE 23:52:09 15° NNE 23:52:09 15° NNE visible
28 Jun 6.8 23:28:45 10° NNE 23:29:39 14° NNE 23:29:39 14° NNE visible
29 Jun 6.9 23:06:36 10° NNE 23:07:11 12° NE 23:07:11 12° NE visible
30 Jun 7.2 00:41:22 10° NW 00:41:41 12° NW 00:41:41 12° NW visible
